COSMOS 2251 DEB, 37084

Orbit data source: Space-Track

COSMOS 2251 DEB, 37084 is space debris in LEO originally from a launch on Wed, 16 Jun 1993 UTC launched from the Plesetsk Missile And Space Complex (PKMTR). The debris from Iridium 33, an American commercial communications satellite, has been tracked extensively since its accidental collision with the defunct Russian satellite Cosmos 2251 in 2009. This event, occurring at high speed in low Earth orbit (LEO), generated thousands of pieces of space debris, significantly increasing the risk of further collisions. The Iridium 33 debris cloud has impacted space traffic management and orbital debris mitigation strategies, making it a subject of ongoing study in space situational awareness.

Loading next visibility...
Identifier
37084, 1993-036BFE
Orbit
LEO
Country
Flag of CISCIS
Related business
Manufacturer
Unknown
Mission
Spacecraft
Bus & Motor
Unknown
Mass
Unknown
Launch date (UTC)
1993-06-16 (33 years ago)
Launch vehicle
Unknown
Launch site
Plesetsk Missile And Space Complex (PKMTR)
Object type
Payload
Rocket body
Debris
Shape & HBR
Unknown shape, 0.1 m
Radar Cross Section
Small (<0.1 m²)

Expand to show TLE details & history
Last TLE update: 3 days ago

TLE from 3 days ago
0 COSMOS 2251 DEB
1 37084U 93036BFE 26205.29078587  .00008359  00000-0  55593-3 0  9999
2 37084  74.0264  64.8569 0090026  85.5561 275.5906 15.03954882696259
Epoch: 2026-07-24T06:58Z
TLE epoch observation values (Epoch: 2026-07-24T06:58:43.899Z)
Latitude
-0.00003°
Longitude
18.15444°
Altitude
551.884 km
Speed
7.589 km/s
True Right ascension
04h 19m 25s
True Declination
0° 00' 00"
Sunlit
Object was in daylight at epoch
Visualization orbit readout
Latitude
Unknown
Longitude
Unknown
Altitude
Unknown
Speed
Unknown
Apparent Right ascension
Unknown
Apparent Declination
Unknown
Sunlit
N/A
Visualization observer readout
Local Sidereal Time
01:38:01
Azimuth
Unknown
Elevation
Unknown
Doppler factor
Unknown
Orbital elements
Apogee altitude
614.657 km
Perigee altitude
489.874 km
Semi-major axis
6,930.403 km
Eccentricity
0.009
Inclination
74.0264°
RAAN
64.8569°
Arg. of periapsis
85.5561°
True anomaly
274.56281°
Mean anomaly
275.5906°
Eccentric anomaly
275.07681°
Mean motion
3.76188 °/min
Orbital period
95.7 mins
BSTAR
0.00055593
Loading maneuver chart data...
Computing Atmospheric mass density...

Documentation

Showing up to 5 results
|